Location: Jaite
(41.2884°N, 81.5737°W)
Time: 05:59:06
(UTC+00:00)

SL-16 R/B - Pass Details

Date: 15 November 2025
Orbit: 839 x 848 km, 71.0° (Epoch: 04 December)

Event Time Altitude Azimuth Distance (km) Brightness Sun altitude
Rises 11:19:41 0° 232° (SW) 3,397 5.0 -10.6°
Reaches altitude 10° 11:22:24 10° 242° (WSW) 2,466 4.2 -10.1°
Maximum altitude 11:27:22 31° 304° (NW) 1,455 2.9 -9.2°
Drops below altitude 10° 11:32:23 10° 5° (N) 2,480 4.5 -8.3°
Sets 11:35:08 0° 16° (NNE) 3,419 5.3 -7.8°
